Temp
57 58 59 61 60 60 60 60 57 54 55 53 55 57 61 62 62 63 62 61 61 62 64 64 64 64 64 65 66 66 66 66 66 66 66 66 67 67
57 57 57 59 58 58 58 58 58 58 54 56 55 57 58 59 60 60 61 57 59 61 62 60 61 61 62 63 63 63 64 64 65 66 66 67 67 66
57 57 57 57 57 56 57 58 57 57 55 59 57 56 55 56 56 57 58 58 60 58 60 60 60 59 60 61 61 62 62 63 64 66 66 66 66 64
55 55 56 56 55 54 55 56 57 58 58 56 59 55 54 56 55 56 57 58 59 58 58 59 58 58 59 59 59 59 59 59 60 61 63 64 64 63
55 55 56 53 53 54 55 55 56 57 58 56 57 55 55 53 53 53 54 55 56 55 58 57 58 58 58 58 57 57 56 57 57 58 59 60 61 62
55 55 54 54 54 53 55 55 57 57 57 56 56 56 56 54 52 54 53 53 56 55 55 56 56 56 57 57 56 54 54 55 57 57 57 56 57 58
51 52 53 53 52 55 56 55 55 54 55 55 54 55 55 52 53 53 53 55 56 54 55 55 56 56 57 55 54 52 53 55 55 56 57 56 55 56
49 50 51 49 51 52 53 54 55 54 53 54 54 52 54 55 54 53 54 54 52 55 53 55 53 56 57 57 56 54 53 53 54 54 55 55 55 54
50 49 49 51 50 51 52 52 51 52 52 54 55 55 55 57 56 54 53 54 54 53 53 52 50 53 56 55 54 53 53 53 52 53 53 53 53 53
50 51 51 50 49 50 51 53 52 48 47 51 53 48 45 46 48 51 53 54 53 49 48 49 51 52 51 52 53 53 52 52 52 51 52 52 52 52
44 45 45 45 46 48 47 47 44 43 45 45 45 44 43 44 44 46 40 40 39 41 40 41 42 41 43 45 47 49 50 51 51 51 51 51 50 50
42 43 45 44 45 46 45 43 39 39 40 40 40 39 39 40 41 39 38 35 35 36 36 36 36 36 38 39 40 43 44 47 48 49 49 49 49 49
38 38 40 42 42 43 43 40 39 40 39 36 36 35 35 35 35 36 36 36 34 34 37 35 33 34 33 34 34 35 37 36 38 40 44 45 46 46
34 34 38 40 40 39 38 40 39 37 35 33 32 31 31 32 33 34 34 34 33 33 34 34 32 33 32 29 30 30 32 35 34 33 37 41 43 44
37 37 38 37 36 35 35 35 34 32 31 31 30 30 31 31 32 28 29 30 27 29 31 32 32 32 32 31 31 32 33 33 37 35 34 33 36 38
34 36 36 36 36 34 32 32 32 32 29 29 29 31 31 32 31 28 20 21 19 24 30 26 26 32 32 32 30 30 28 26 30 35 35 35 37 38
31 30 29 29 29 29 30 30 30 30 29 30 30 30 30 31 30 31 21 23 27 27 20 25 28 26 29 28 29 32 32 33 31 33 33 33 35 37
30 28 27 28 27 28 27 28 29 29 28 29 29 29 28 28 28 29 28 25 25 24 24 18 16 26 30 32 35 31 31 31 31 30 33 32 32 34
28 28 27 27 27 27 26 26 26 27 28 24 26 27 28 27 27 27 27 27 27 27 29 28 12 22 26 25 26 38 30 29 31 32 33 31 30 32
28 27 27 27 27 26 24 23 23 23 23 22 21 25 26 27 26 26 28 27 28 29 29 29 26 26 26 27 28 33 36 29 24 27 28 30 32 36
27 27 27 27 26 23 21 20 19 20 23 17 19 23 25 26 26 28 28 31 31 28 27 23 30 37 33 31 28 25 23 34 30 28 30 28 28 27
27 27 26 26 25 19 17 16 14 15 16 20 23 21 23 27 27 28 28 27 28 28 29 30 31 30 27 29 25 20 28 29 31 32 34 33 29 25
26 26 26 25 25 19 15 13 13 14 17 21 22 25 25 26 28 29 28 29 28 29 30 30 31 26 26 25 26 26 19 15 18 25 23 36 36 35
MSLP
1007.28 1007.31 1007.34 1007.39 1007.65 1007.68 1008.14 1008.66 1009.05 1009.32 1009.13 1008.95 1009.26 1008.73 1008.83 1008.83 1008.99 1009.14 1009.45 1009.36 1009.53 1009.90 1010.10 1010.18 1010.24 1010.37 1010.61 1010.88 1010.97 1011.33 1011.67 1011.87 1011.98 1012.36 1012.64 1012.91 1013.38 1013.66
1006.54 1006.59 1006.66 1006.58 1006.93 1007.10 1007.30 1007.80 1008.35 1008.71 1008.55 1008.22 1008.35 1008.19 1008.15 1008.16 1008.25 1008.59 1008.75 1008.77 1008.91 1009.07 1009.16 1009.38 1009.53 1009.57 1009.85 1010.03 1010.20 1010.49 1010.78 1011.17 1011.38 1011.56 1011.98 1012.24 1012.46 1012.97
1005.64 1005.76 1005.89 1005.89 1006.23 1006.46 1006.67 1006.93 1007.48 1007.90 1008.00 1007.68 1007.79 1007.86 1007.97 1007.96 1007.96 1008.06 1008.12 1008.33 1008.27 1008.35 1008.41 1008.61 1008.69 1008.75 1008.97 1009.20 1009.43 1009.68 1009.95 1010.26 1010.69 1010.83 1011.18 1011.57 1011.86 1012.18
1005.04 1005.15 1005.13 1005.29 1005.48 1005.73 1006.02 1006.27 1006.50 1006.75 1007.15 1007.20 1007.19 1007.43 1007.53 1007.28 1007.43 1007.61 1007.62 1007.51 1007.57 1007.57 1007.69 1007.74 1007.80 1007.95 1008.20 1008.36 1008.54 1008.83 1009.14 1009.57 1009.94 1010.19 1010.35 1010.59 1011.10 1011.59
1004.29 1004.40 1004.49 1004.63 1004.83 1005.16 1005.33 1005.64 1005.87 1006.05 1006.21 1006.81 1006.60 1006.91 1007.11 1007.10 1007.22 1007.15 1007.12 1007.13 1007.13 1007.02 1007.14 1007.07 1007.02 1007.10 1007.28 1007.43 1007.71 1008.03 1008.35 1008.65 1008.94 1009.30 1009.55 1009.89 1010.20 1010.64
1003.61 1003.63 1003.75 1003.85 1003.96 1004.41 1004.69 1004.84 1005.24 1005.83 1005.73 1005.99 1006.29 1006.34 1006.62 1006.65 1006.77 1006.89 1006.71 1006.57 1006.49 1006.48 1006.49 1006.63 1006.68 1006.59 1006.77 1007.09 1007.18 1007.27 1007.37 1007.68 1007.72 1008.18 1008.64 1008.83 1009.22 1009.43
1003.32 1003.26 1003.19 1003.13 1003.22 1003.49 1003.81 1004.15 1004.48 1005.07 1005.24 1005.24 1005.52 1005.69 1005.79 1005.99 1006.16 1006.13 1005.98 1005.78 1005.64 1005.93 1005.95 1005.94 1005.83 1005.82 1005.84 1005.90 1006.20 1006.36 1006.44 1006.73 1006.75 1007.04 1007.54 1007.83 1007.99 1008.29
1003.16 1002.98 1002.92 1002.92 1003.06 1003.10 1003.07 1003.26 1003.62 1004.18 1004.45 1004.59 1004.81 1005.06 1005.08 1005.02 1005.27 1005.43 1005.42 1005.64 1005.46 1005.16 1005.47 1005.30 1005.20 1005.08 1005.11 1004.97 1005.04 1005.36 1005.43 1005.74 1006.07 1006.17 1006.63 1006.74 1006.76 1006.90
1002.93 1002.89 1002.95 1002.94 1002.96 1003.20 1003.16 1003.26 1003.43 1003.60 1003.67 1004.04 1004.24 1004.38 1004.49 1004.42 1004.60 1004.78 1004.93 1004.83 1004.72 1004.72 1005.00 1004.76 1004.62 1004.47 1004.31 1004.35 1004.56 1004.54 1004.74 1005.01 1005.42 1005.33 1005.77 1006.27 1006.11 1006.37
1003.00 1002.76 1002.78 1002.78 1002.92 1003.11 1003.23 1003.51 1003.73 1004.25 1004.17 1003.90 1004.03 1004.60 1004.83 1004.70 1004.50 1004.24 1004.31 1004.20 1004.20 1004.59 1004.77 1004.58 1004.31 1004.01 1003.90 1003.97 1004.05 1004.30 1004.24 1004.55 1004.71 1004.90 1005.30 1005.42 1005.47 1005.63
1003.34 1003.31 1003.32 1003.19 1003.01 1002.82 1003.09 1003.74 1004.30 1004.69 1005.09 1004.82 1005.07 1005.13 1005.44 1005.23 1004.79 1004.47 1004.92 1004.92 1005.08 1005.22 1005.44 1005.31 1004.99 1004.86 1004.49 1004.32 1004.48 1004.50 1004.41 1004.51 1004.77 1004.78 1004.84 1005.08 1005.14 1005.10
1003.78 1003.91 1003.79 1003.60 1003.25 1002.98 1003.23 1003.62 1004.26 1004.93 1005.36 1005.45 1005.51 1005.80 1005.95 1005.98 1005.65 1005.64 1005.85 1005.51 1005.52 1005.78 1006.17 1006.07 1005.89 1005.63 1005.42 1004.94 1004.98 1004.99 1004.94 1004.80 1004.80 1004.83 1004.93 1005.04 1004.92 1004.71
1004.70 1004.85 1004.80 1004.61 1004.27 1004.09 1003.99 1004.50 1004.86 1005.14 1005.37 1005.87 1006.14 1006.25 1006.58 1006.69 1006.82 1006.31 1006.43 1006.31 1006.18 1006.27 1006.48 1006.50 1006.39 1006.31 1006.51 1006.31 1005.62 1005.10 1005.24 1005.16 1005.27 1005.22 1005.08 1005.02 1004.88 1004.71
1005.58 1005.78 1005.75 1005.52 1005.34 1005.15 1005.39 1005.26 1005.66 1006.19 1005.87 1006.62 1006.59 1006.72 1007.32 1007.20 1007.22 1007.02 1007.03 1006.96 1006.88 1006.98 1006.91 1007.02 1006.82 1006.84 1006.93 1006.88 1006.82 1005.93 1005.60 1005.66 1005.52 1005.17 1004.99 1004.61 1004.26 1004.02
1006.66 1006.59 1006.56 1006.52 1006.22 1006.40 1006.54 1006.46 1006.44 1006.80 1006.80 1006.92 1006.91 1007.45 1007.61 1007.93 1007.83 1007.72 1007.50 1007.28 1007.02 1006.93 1006.78 1006.80 1006.89 1006.97 1007.15 1006.91 1006.70 1006.28 1006.17 1005.37 1005.14 1005.15 1004.97 1004.81 1004.43 1004.01
1007.79 1007.45 1007.33 1007.38 1007.51 1007.71 1007.73 1007.71 1007.84 1008.00 1008.04 1007.98 1008.20 1008.28 1008.32 1008.42 1008.34 1008.14 1008.23 1008.00 1007.69 1007.26 1006.74 1006.70 1006.96 1006.87 1006.69 1006.41 1006.25 1005.95 1005.83 1005.90 1005.07 1004.84 1004.63 1004.29 1003.90 1003.52
1008.57 1008.64 1008.76 1008.67 1008.63 1008.67 1008.73 1008.77 1008.66 1008.51 1008.42 1008.50 1008.58 1008.68 1008.67 1008.58 1008.45 1008.26 1008.32 1008.15 1008.04 1007.86 1007.67 1007.06 1006.61 1006.59 1006.36 1006.11 1005.67 1005.17 1004.94 1004.78 1004.44 1004.21 1003.94 1003.20 1002.59 1002.32
1009.04 1009.11 1009.27 1009.36 1009.51 1009.62 1009.68 1009.65 1009.58 1009.47 1009.43 1009.36 1009.28 1009.14 1009.05 1008.86 1008.60 1008.43 1008.41 1008.42 1008.22 1008.01 1007.59 1007.16 1006.96 1006.45 1005.54 1004.71 1004.26 1004.36 1004.32 1004.05 1003.72 1003.44 1003.07 1002.26 1000.88 1000.57
1009.84 1009.93 1009.90 1009.95 1010.08 1010.21 1010.30 1010.33 1010.29 1010.21 1010.07 1009.94 1009.73 1009.46 1009.17 1008.96 1008.74 1008.45 1008.19 1007.97 1007.59 1007.13 1006.74 1006.58 1006.27 1006.16 1005.41 1004.70 1003.97 1003.30 1003.64 1003.17 1002.91 1002.48 1002.04 1001.56 1000.58 999.29
1010.66 1010.78 1010.81 1010.80 1010.84 1010.95 1011.06 1011.01 1010.90 1010.71 1010.48 1010.27 1010.02 1009.69 1009.28 1008.84 1008.49 1008.12 1007.69 1007.38 1006.97 1006.61 1006.23 1005.77 1005.61 1005.38 1004.94 1004.38 1003.88 1003.21 1002.77 1002.59 1002.35 1001.81 1001.15 1000.70 1000.14 999.07
1011.04 1010.95 1011.07 1011.16 1011.30 1011.54 1011.67 1011.58 1011.35 1010.85 1010.54 1010.39 1010.05 1009.75 1009.33 1008.86 1008.32 1007.88 1007.55 1007.07 1006.60 1006.29 1005.91 1005.53 1004.85 1004.28 1003.95 1003.79 1003.50 1002.99 1002.31 1001.97 1001.74 1001.27 1000.67 1000.16 999.30 998.19
1011.34 1011.32 1011.48 1011.53 1011.67 1011.83 1011.82 1011.81 1011.54 1011.14 1010.72 1010.37 1010.07 1009.72 1009.26 1008.79 1008.34 1007.87 1007.40 1006.90 1006.37 1005.98 1005.42 1004.66 1003.96 1003.65 1003.75 1003.70 1003.41 1003.07 1002.43 1001.62 1000.91 1000.68 1000.70 1000.58 999.91 998.64
1011.40 1011.69 1011.60 1011.67 1011.75 1012.05 1012.14 1012.12 1011.89 1011.37 1010.94 1010.40 1009.87 1009.41 1009.01 1008.59 1008.06 1007.56 1007.12 1006.63 1006.06 1005.44 1004.94 1004.34 1003.75 1003.57 1003.55 1003.64 1003.54 1003.30 1002.70 1002.28 1001.77 1001.42 1000.46 999.86 999.31 998.79
Wind_Speed
12 11 11 10 8 7 7 8 10 10 10 4 5 6 6 7 10 10 10 13 17 18 21 20 18 17 16 18 20 19 17 16 16 17 17 17 18 21
10 11 10 9 8 6 7 6 8 12 12 4 6 5 6 5 7 8 9 12 13 19 19 18 18 17 19 20 18 18 17 18 17 18 18 18 18 21
11 11 12 10 8 7 6 7 8 8 12 8 4 5 4 6 5 5 5 7 7 14 17 20 19 18 18 19 19 18 17 17 19 20 20 20 19 19
11 11 12 7 8 6 6 9 8 7 9 11 8 5 7 6 5 6 6 6 8 10 16 18 16 16 17 18 18 16 14 15 16 18 21 22 21 20
10 11 11 8 7 5 7 8 6 6 7 7 9 4 6 4 5 4 5 6 6 10 13 14 16 18 19 18 15 15 14 16 18 20 21 20 21 22
9 11 10 10 9 8 8 9 7 9 8 8 8 8 6 4 4 6 6 4 6 4 8 10 10 14 13 12 13 15 16 19 20 20 20 20 21 21
6 6 7 8 12 12 7 8 8 9 8 7 7 6 7 4 7 5 6 5 5 4 5 6 8 7 8 13 14 16 19 20 19 21 23 22 23 24
5 6 6 8 10 14 14 13 11 10 10 7 7 8 10 7 5 5 6 6 7 4 6 8 5 7 7 7 12 14 16 20 20 20 21 24 24 25
5 4 5 4 5 5 8 10 10 11 8 6 10 10 10 8 7 8 8 8 9 5 4 7 3 7 8 6 13 13 14 16 17 18 21 22 20 21
4 4 4 2 1 3 4 6 0 7 4 2 4 4 6 4 3 2 5 6 5 2 2 5 1 6 3 4 9 11 10 11 13 14 17 17 18 20
6 7 5 4 4 5 5 6 8 8 12 20 18 17 16 16 13 2 2 2 2 0 4 2 2 3 3 4 5 9 6 8 9 9 11 12 13 16
7 9 16 11 13 11 5 8 8 4 5 6 7 10 11 11 16 9 4 2 1 1 3 2 3 3 4 2 3 3 5 11 12 10 12 13 14 8
6 6 7 16 18 18 15 7 6 6 10 6 6 6 6 7 5 5 5 3 2 1 5 2 2 2 1 3 4 3 5 4 5 7 12 13 14 12
7 5 8 17 17 18 12 16 13 7 6 4 4 6 4 4 4 4 4 3 1 2 3 0 1 1 2 2 3 4 5 7 5 4 7 12 16 17
5 11 14 15 17 14 17 16 13 5 4 5 5 4 3 3 4 4 4 3 3 3 2 1 2 1 3 4 4 4 7 3 7 6 3 6 8 8
8 8 12 13 14 11 9 10 6 5 4 5 4 2 2 3 3 3 2 3 2 3 6 1 4 3 3 6 6 7 4 3 2 7 7 8 10 11
5 4 5 5 6 5 6 6 4 5 5 4 3 2 2 3 2 2 2 3 2 3 4 4 5 3 6 7 8 9 7 7 6 7 7 9 10 11
3 4 4 5 5 5 5 5 5 5 4 3 3 2 3 3 3 2 1 1 3 3 4 3 2 3 3 6 15 9 7 7 7 7 8 10 13 8
3 4 4 4 4 4 4 4 3 4 5 3 3 3 2 2 3 3 3 3 3 3 4 3 2 1 5 7 4 11 5 6 7 9 7 7 12 14
3 3 3 3 3 4 4 3 3 3 3 4 3 4 4 3 3 3 3 4 4 5 5 3 2 3 4 4 6 8 12 6 3 8 9 9 12 26
2 2 2 2 2 2 2 2 3 3 3 3 3 4 5 4 4 4 4 8 8 4 7 5 6 12 5 4 6 5 4 7 7 8 10 10 12 11
0 1 1 1 2 2 2 3 3 3 3 3 4 4 5 5 5 6 5 5 5 5 7 6 7 4 2 4 5 4 7 6 11 14 16 17 10 10
1 1 1 1 1 1 2 3 3 3 3 3 4 4 5 5 5 5 6 6 6 5 6 6 5 2 2 1 6 6 5 4 3 6 4 10 15 17
Wind_Direction
236 234 233 237 229 220 225 228 232 242 239 217 234 214 214 212 222 226 221 228 223 229 240 240 235 229 226 225 223 226 233 237 218 215 215 214 234 244
233 233 230 229 225 215 207 217 228 240 255 191 215 220 214 218 218 219 225 227 226 226 233 235 234 229 227 229 222 221 225 232 225 215 219 224 229 246
234 229 227 214 213 211 199 205 218 222 239 252 208 232 243 227 231 224 225 227 237 230 233 234 233 229 228 231 226 223 225 227 229 228 223 231 232 239
235 229 232 214 209 204 193 214 217 213 231 240 232 219 220 222 224 234 234 238 240 239 232 232 233 230 230 228 225 220 218 219 226 230 233 226 228 235
229 225 230 203 210 203 212 220 215 225 216 233 244 211 233 223 238 241 233 232 226 236 245 239 235 232 230 226 220 221 218 218 220 226 232 229 222 228
230 224 218 205 205 202 206 211 208 230 223 232 240 249 221 213 204 240 256 208 250 220 238 240 240 241 242 239 229 223 220 223 227 229 223 218 223 223
241 234 222 214 211 206 202 206 194 215 224 223 236 232 234 195 229 212 239 261 256 210 238 223 224 230 231 228 236 227 232 239 233 228 224 221 220 222
270 258 242 234 233 221 209 201 202 215 222 223 232 231 238 221 206 220 239 248 260 196 223 254 196 240 237 231 231 225 224 235 234 232 231 230 229 225
275 270 272 254 234 255 242 246 251 245 260 243 236 231 235 234 218 227 230 230 247 237 201 257 209 240 242 238 231 227 226 224 228 230 237 241 238 237
304 305 260 195 141 230 259 262 210 56 0 253 255 60 40 10 282 263 266 259 247 103 332 258 286 249 247 224 235 242 242 236 237 238 242 249 248 247
69 58 60 57 359 241 192 139 115 103 64 79 84 76 57 43 28 100 36 110 251 47 14 38 338 310 333 350 7 359 337 323 302 293 286 279 273 267
78 65 61 64 58 57 109 135 115 103 111 87 63 52 48 37 44 46 0 101 103 72 353 11 344 12 335 16 1 23 22 3 351 350 344 328 314 296
69 65 64 66 68 70 78 72 87 111 96 77 84 71 43 36 24 30 25 11 36 327 36 34 356 11 63 315 324 353 357 352 342 323 310 303 301 295
81 60 62 71 71 70 63 78 78 66 76 89 67 59 46 32 2 4 5 4 2 244 305 41 279 65 46 315 248 324 333 321 299 304 315 307 306 299
65 81 78 74 66 60 63 63 56 46 59 71 64 58 37 3 349 352 334 337 313 294 321 348 188 205 205 239 273 272 296 305 289 291 307 308 294 296
44 67 73 70 68 67 60 53 51 64 53 57 60 47 35 23 0 2 345 340 12 328 327 273 227 218 246 243 251 269 245 236 275 301 294 283 282 277
71 50 43 49 63 57 57 44 36 35 38 29 39 19 14 1 350 344 346 346 338 317 301 307 302 238 242 252 271 268 266 254 245 259 262 269 264 265
59 68 63 63 59 48 43 41 35 35 17 6 358 360 351 331 316 330 345 285 287 292 296 264 292 300 253 251 226 254 258 260 261 249 259 282 286 278
68 72 80 76 66 54 46 33 23 0 349 355 340 323 316 302 320 280 259 268 262 255 304 264 258 242 304 309 277 228 226 280 291 300 291 284 289 293
66 65 65 63 55 46 31 15 351 338 334 339 333 313 301 301 302 297 302 299 303 296 281 278 248 246 262 280 287 282 274 270 280 298 302 301 291 291
81 107 103 97 83 53 4 345 340 314 346 334 324 322 308 297 298 297 295 312 315 291 305 283 268 289 278 277 287 291 286 296 296 298 308 302 306 304
68 95 48 29 72 16 355 334 331 335 332 340 332 320 309 294 289 296 292 294 297 287 280 280 286 286 282 292 299 302 316 314 322 307 283 278 295 296
154 301 81 54 56 336 351 333 309 301 297 294 277 285 284 298 290 292 288 291 291 302 307 306 303 289 279 315 331 312 308 320 314 310 291 293 312 302